Find Starlink 33556

NORAD ID: 62109 Int'l Des: 2024-220 Owner: SPXS Country: US Constellation: starlink operational
LEOCIRCULAR

当前视图

正在加载3D地球...

About Starlink 33556

Starlink 33556 (NORAD 62109) is a starlink constellation satellite (v2 mini) launched Nov 25, 2024 by SPXS of US. It operates in LEO, CIRCULAR orbit with a mass of 530.00 kg.

关于 Starlink 33556

正在加载描述...

即将过境

Passes for default location (London). Set your location on the main map for personalized predictions.

高度历史

Loading altitude history...

两行轨道根数

1 62109U 24220X 26171.47791625 .00014231 00000-0 52547-3 0 9993
2 62109 43.0018 344.8492 0001393 245.2692 114.8015 15.27593090 88935
Epoch: Jun 20, 2026 • Age: 31 hours

当前状态

高度 482.5 km
速度 7.63 km/s
星下点 13.16°N, 157.8°E
发射日期 Nov 25, 2024
运行时间 1.5 years
类型 internet

技术详情

分类 Payload
质量 530.00 kg
干质量 500.00 kg
总质量 530.00 kg
长度 0.30 m
直径 4.10 m
跨度 29.00 m
形状 Box + pan
制造商 SPXS
平台类型 Starlink V2MO
阶段状态 In Orbit
所有者/国家 SPXS/US

Most Searched